Date String (YYYY-MM-DD hh:mm:ss) UTC,Instrument flags,absolute air pressure of the measurement (hPa),sample flow rate (lpm),inlet stack bypass flow (lpm),air temperature of the measurement (°C),ambient temperature measured by the external sensor (°C),aerosol sample conditioner tube jacket temperature (°C),OPC LED temperature (°C),internal box temperature (°C),relative humidity of the measurement (%),span deviation,mass concentration of particles derived from Lorenz-Mie calculation of OPC scattering (μg/m³),mass concentration of particles derived from Lorenz-Mie calculation of OPC scattering (μg/m³),mass concentration of particles derived from Lorenz-Mie calculation of OPC scattering (μg/m³)
DateTimeUTC,F1_M11,P_M11,Q1_M11,Q2_M11,T1_M11,T2_M11,T3_M11,T4_M11,T5_M11,U1_M11,ZSPAN_M11,X2_M11,X0_M11,X1_M11
2023-09-09 14:00:00,SystemResetWarning,0837.2,5.02,000.00,028.7,024.9,000.0,036.9,030.0,12.7,0000.0,0001.65,0004.48,0001.10
2023-09-09 14:01:00,SystemResetWarning,0837.2,5.00,000.00,028.6,025.1,000.0,036.9,029.8,12.7,0000.0,0001.64,0003.89,0001.12
2023-09-09 14:02:00,SystemResetWarning,0837.2,4.99,000.00,028.5,025.4,000.0,036.9,029.8,15.0,0000.0,0001.64,0003.42,0001.12
2023-09-09 14:03:00,SystemResetWarning,0837.2,4.99,000.00,028.5,025.8,000.0,036.9,029.8,16.3,0000.0,0001.64,0003.04,0001.12
2023-09-09 14:04:00,SystemResetWarning,0837.2,5.01,000.00,028.5,026.1,000.0,036.9,029.9,16.2,0000.0,0001.66,0003.15,0001.12
2023-09-09 14:05:00,SystemResetWarning,0837.2,5.01,000.00,028.5,026.4,000.0,036.9,029.9,17.1,0000.0,0001.62,0003.07,0001.13
2023-09-09 14:06:00,SystemResetWarning,0837.2,5.00,000.00,028.5,026.6,000.0,036.9,030.0,17.0,0000.0,0001.63,0003.03,0001.13
2023-09-09 14:07:00,SystemResetWarning,0837.2,5.00,000.00,028.5,026.8,000.0,036.9,030.0,15.9,0000.0,0001.64,0003.04,0001.13
2023-09-09 14:08:00,SystemResetWarning,0837.2,4.99,000.00,028.5,027.0,000.0,036.9,030.1,16.1,0000.0,0001.63,0003.06,0001.12
2023-09-09 14:09:00,SystemResetWarning,0837.2,5.00,000.00,028.6,027.2,000.0,036.9,030.1,14.9,0000.0,0001.62,0002.89,0001.10
2023-09-09 14:10:00,SystemResetWarning,0837.2,4.99,000.00,028.6,027.3,000.0,037.0,030.2,14.3,0000.0,0001.62,0002.92,0001.09
2023-09-09 14:11:00,SystemResetWarning,0837.2,5.00,000.00,028.6,027.4,000.0,037.0,030.2,14.7,0000.0,0001.67,0002.96,0001.09
2023-09-09 14:12:00,SystemResetWarning,0837.5,5.00,000.00,028.6,027.5,000.0,037.0,030.2,14.5,0000.0,0001.70,0003.10,0001.08
2023-09-09 14:13:00,SystemResetWarning,0837.3,5.01,000.00,028.7,027.6,000.0,037.0,030.3,13.9,0000.0,0001.71,0003.24,0001.08
2023-09-09 14:14:00,SystemResetWarning,0837.4,5.00,000.00,028.7,027.7,000.0,037.0,030.3,13.1,0000.0,0001.71,0003.45,0001.08
2023-09-09 14:15:00,SystemResetWarning,0837.4,5.00,000.00,028.7,027.7,000.0,037.1,030.3,12.6,0000.0,0001.69,0003.58,0001.08
2023-09-09 14:16:00,SystemResetWarning,0837.4,5.00,000.00,028.8,027.8,000.0,037.1,030.4,12.5,0000.0,0001.70,0003.56,0001.09
2023-09-09 14:17:00,SystemResetWarning,0837.4,4.99,000.00,028.8,027.8,000.0,037.1,030.4,13.3,0000.0,0001.71,0003.59,0001.08
2023-09-09 14:18:00,SystemResetWarning,0837.3,4.99,000.00,028.8,027.8,000.0,037.1,030.5,13.1,0000.0,0001.67,0003.70,0001.09
2023-09-09 14:19:00,SystemResetWarning,0837.3,5.00,000.00,028.8,026.6,000.0,037.1,030.3,13.4,0000.0,0001.72,0003.96,0001.11
2023-09-09 14:20:00,SystemResetWarning,0837.2,5.00,000.00,028.8,025.1,000.0,037.0,030.0,13.7,0000.0,0001.72,0003.90,0001.12
2023-09-09 14:21:00,SystemResetWarning,0837.4,5.00,000.00,028.7,025.0,000.0,036.9,030.0,14.1,0000.0,0001.80,0004.01,0001.12
2023-09-09 14:22:00,SystemResetWarning,0837.4,5.01,000.00,028.6,025.3,000.0,036.9,029.8,14.7,0000.0,0001.75,0004.59,0001.13
2023-09-09 14:23:00,SystemResetWarning,0837.5,5.00,000.00,028.5,025.6,000.0,036.9,029.8,15.0,0000.0,0001.71,0005.92,0001.13
2023-09-09 14:24:00,SystemResetWarning,0837.5,4.99,000.00,028.5,025.9,000.0,036.9,029.8,16.1,0000.0,0001.71,0006.42,0001.14
2023-09-09 14:25:00,SystemResetWarning,0837.6,5.00,000.00,028.5,026.2,000.0,036.9,029.9,16.1,0000.0,0001.68,0006.11,0001.17
2023-09-09 14:26:00,SystemResetWarning,0837.6,5.00,000.00,028.5,026.5,000.0,036.9,029.9,17.0,0000.0,0001.68,0005.77,0001.18
2023-09-09 14:27:00,SystemResetWarning,0837.6,5.00,000.00,028.5,026.7,000.0,036.9,030.0,15.9,0000.0,0001.71,0005.85,0001.18
2023-09-09 14:28:00,SystemResetWarning,0837.5,5.00,000.00,028.5,026.9,000.0,036.9,030.0,15.3,0000.0,0001.77,0006.13,0001.19
2023-09-09 14:29:00,SystemResetWarning,0837.6,5.00,000.00,028.6,027.1,000.0,036.9,030.1,16.8,0000.0,0001.81,0006.09,0001.20
2023-09-09 14:30:00,SystemResetWarning,0837.5,5.00,000.00,028.6,027.2,000.0,036.9,030.1,17.1,0000.0,0001.80,0006.06,0001.21
2023-09-09 14:31:00,SystemResetWarning,0837.5,4.99,000.00,028.6,027.4,000.0,037.0,030.2,16.1,0000.0,0001.81,0006.68,0001.21
2023-09-09 14:32:00,SystemResetWarning,0837.5,5.00,000.00,028.6,027.5,000.0,037.0,030.2,16.1,0000.0,0001.73,0006.53,0001.22
2023-09-09 14:33:00,SystemResetWarning,0837.5,4.99,000.00,028.7,027.5,000.0,037.0,030.3,15.8,0000.0,0001.71,0005.86,0001.22
2023-09-09 14:34:00,SystemResetWarning,0837.5,5.00,000.00,028.7,027.6,000.0,037.0,030.3,16.3,0000.0,0001.72,0004.81,0001.23
2023-09-09 14:35:00,SystemResetWarning,0837.5,5.00,000.00,028.7,027.7,000.0,037.0,030.3,15.8,0000.0,0001.72,0004.74,0001.24
2023-09-09 14:36:00,SystemResetWarning,0837.6,5.00,000.00,028.8,027.8,000.0,037.1,030.4,15.8,0000.0,0001.76,0005.16,0001.24
2023-09-09 14:37:00,SystemResetWarning,0837.6,5.00,000.00,028.8,027.8,000.0,037.1,030.4,15.6,0000.0,0001.80,0005.33,0001.24
2023-09-09 14:38:00,SystemResetWarning,0837.6,4.99,000.00,028.8,027.6,000.0,037.1,030.5,14.6,0000.0,0001.83,0005.76,0001.23
2023-09-09 14:39:00,SystemResetWarning,0837.6,4.99,000.00,028.8,026.1,000.0,037.0,030.2,14.1,0000.0,0001.88,0007.88,0001.22
2023-09-09 14:40:00,SystemResetWarning,0837.5,5.01,000.00,028.7,025.0,000.0,036.9,030.0,14.0,0000.0,0001.91,0008.90,0001.22
2023-09-09 14:41:00,SystemResetWarning,0837.5,5.01,000.00,028.7,025.1,000.0,036.9,029.9,14.3,0000.0,0001.94,0009.54,0001.22
2023-09-09 14:42:00,SystemResetWarning,0837.5,4.99,000.00,028.6,025.3,000.0,036.9,029.8,14.4,0000.0,0001.98,0009.47,0001.22
2023-09-09 14:43:00,SystemResetWarning,0837.5,5.00,000.00,028.5,025.7,000.0,036.9,029.8,14.4,0000.0,0001.98,0009.52,0001.21
2023-09-09 14:44:00,SystemResetWarning,0837.5,5.00,000.00,028.5,026.0,000.0,036.9,029.8,14.7,0000.0,0002.02,0009.57,0001.22
2023-09-09 14:45:00,SystemResetWarning,0837.5,5.00,000.00,028.5,026.3,000.0,036.9,029.9,14.1,0000.0,0002.04,0009.86,0001.22
2023-09-09 14:46:00,SystemResetWarning,0837.6,4.99,000.00,028.5,026.6,000.0,036.9,030.0,13.5,0000.0,0002.06,0009.99,0001.21
2023-09-09 14:47:00,SystemResetWarning,0837.6,5.00,000.00,028.5,026.8,000.0,036.9,030.0,13.7,0000.0,0002.05,0009.87,0001.21
2023-09-09 14:48:00,SystemResetWarning,0837.6,5.01,000.00,028.5,027.0,000.0,036.9,030.1,14.0,0000.0,0002.03,0009.85,0001.19
2023-09-09 14:49:00,SystemResetWarning,0837.6,5.00,000.00,028.6,027.2,000.0,036.9,030.1,14.1,0000.0,0002.04,0009.92,0001.19
2023-09-09 14:50:00,SystemResetWarning,0837.7,5.00,000.00,028.6,027.3,000.0,036.9,030.2,14.3,0000.0,0002.03,0008.86,0001.22
2023-09-09 14:51:00,SystemResetWarning,0837.7,4.99,000.00,028.6,027.4,000.0,037.0,030.2,14.0,0000.0,0002.02,0007.58,0001.25
2023-09-09 14:52:00,SystemResetWarning,0837.7,5.00,000.00,028.6,027.5,000.0,037.0,030.3,14.1,0000.0,0002.03,0006.95,0001.25
2023-09-09 14:53:00,SystemResetWarning,0837.7,5.01,000.00,028.7,027.6,000.0,037.0,030.3,13.9,0000.0,0001.99,0007.05,0001.26
2023-09-09 14:54:00,SystemResetWarning,0837.8,5.00,000.00,028.7,027.7,000.0,037.0,030.4,14.1,0000.0,0002.02,0006.96,0001.27
2023-09-09 14:55:00,SystemResetWarning,0837.8,5.00,000.00,028.7,027.8,000.0,037.0,030.4,14.2,0000.0,0002.07,0008.28,0001.28
2023-09-09 14:56:00,SystemResetWarning,0837.7,4.99,000.00,028.8,027.1,000.0,037.0,030.4,13.9,0000.0,0002.16,0008.64,0001.30
2023-09-09 14:57:00,SystemResetWarning,0837.8,5.00,000.00,028.7,025.4,000.0,036.9,030.0,13.7,0000.0,0002.19,0008.13,0001.30
2023-09-09 14:58:00,SystemResetWarning,0837.7,5.00,000.00,028.7,025.0,000.0,036.9,030.0,13.7,0000.0,0002.22,0008.18,0001.31
2023-09-09 14:59:00,SystemResetWarning,0837.7,5.01,000.00,028.6,025.2,000.0,036.9,029.9,13.9,0000.0,0002.24,0008.15,0001.35
